Printer-friendly version

IAU Minor Planet Center

Minor Planet Center

MPEC 2007-S08 : 2007 RN133

The following Minor Planet Electronic Circular may be linked-to from your own Web pages, but must not otherwise be redistributed electronically.


Read MPEC 2007-S07 Read MPEC 2007-S09


M.P.E.C. 2007-S08                                Issued 2007 Sept. 17, 18:05 UT

     The Minor Planet Electronic Circulars contain information on unusual
         minor planets and routine data on comets.  They are published
   on behalf of Commission 20 of the International Astronomical Union by the
          Minor Planet Center, Smithsonian Astrophysical Observatory,
                          Cambridge, MA 02138, U.S.A.

             Prepared using the Tamkin Foundation Computer Network

                              MPC@CFA.HARVARD.EDU
          URL http://www.cfa.harvard.edu/iau/mpc.html  ISSN 1523-6714

                                  2007 RN133

Observations:
     K07RD3N* C2007 09 15.27456 23 34 00.44 -00 14 40.9          19.2 V ES008G96
     K07RD3N  C2007 09 15.28020 23 33 57.38 -00 12 50.2          19.4 V ES008G96
     K07RD3N  C2007 09 15.28578 23 33 54.39 -00 11 00.2          19.3 V ES008G96
     K07RD3N  C2007 09 15.29141 23 33 51.37 -00 09 08.9          19.3 V ES008G96
     K07RD3N  C2007 09 15.38385 23 33 00.63 +00 21 47.2                 ES008G96
     K07RD3N  C2007 09 15.38473 23 33 00.13 +00 22 04.8                 ES008G96
     K07RD3N  C2007 09 15.38563 23 32 59.66 +00 22 23.2                 ES008G96
     K07RD3N  C2007 09 15.38650 23 32 59.20 +00 22 41.1                 ES008G96
     K07RD3N  C2007 09 15.88753 23 28 33.05 +03 26 24.0                 ES008J95
     K07RD3N  C2007 09 15.88935 23 28 31.88 +03 27 08.5                 ES008J95
     K07RD3N  C2007 09 15.89121 23 28 30.77 +03 27 52.8          19.9 R ES008J95
     K07RD3N  C2007 09 16.98819 23 15 05.85 +12 14 35.5                 ES008J95
     K07RD3N  C2007 09 16.99559 23 14 58.84 +12 18 50.4                 ES008J95
     K07RD3N  C2007 09 17.00609 23 14 48.85 +12 24 52.4                 ES008J95
     K07RD3N  C2007 09 17.00764 23 14 47.42 +12 25 45.2                 ES008J95
     K07RD3N  C2007 09 17.00905 23 14 46.04 +12 26 34.7          19.0 R ES008J95
     K07RD3N 5C2007 09 17.14954 23 12 46.27 +13 50 01.6          19.2 R ES008673
     K07RD3N 5C2007 09 17.15968 23 12 36.18 +13 56 11.3                 ES008673
     K07RD3N 5C2007 09 17.16197 23 12 33.83 +13 57 34.5                 ES008673
     K07RD3N 5C2007 09 17.17074 23 12 25.05 +14 02 57.2                 ES008673

Observer details:
673 Table Mountain Observatory, Wrightwood.  Observer J. Young.  0.61-m f/16
    Cassegrain + CCD.
G96 Mt. Lemmon Survey.  Observer A. R. Gibbs.  Measurers E. C. Beshore,
    A. Boattini, G. J. Garradd, A. R. Gibbs, A. D. Grauer, R. E. Hill,
    R. A. Kowalski, S. M. Larson, R. H. McNaught.  1.5-m reflector + CCD.
J95 Great Shefford.  Observer P. Birtwhistle.  0.40-m f/6.0 Schmidt-Cassegrain
    + CCD.

Orbital elements:
2007 RN133                                               Earth MOID = 0.0334 AU
Epoch 2007 Oct. 27.0 TT = JDT 2454400.5                 MPC
M 357.72456              (2000.0)            P               Q
n   0.29494257     Peri.   75.25462     +0.38477006     -0.92184921
a   2.2351727      Node   351.65917     +0.67519108     +0.31532840
e   0.6634834      Incl.   18.62362     +0.62934013     +0.22530433
P   3.34           H   25.1           G   0.15           U   7
Residuals in seconds of arc
070915 G96  0.1+  0.1+    070915 G96  0.0   0.2+    070917 J95  0.5+  0.5-
070915 G96  0.2-  0.3-    070915 J95  0.1+  0.5-    070917 J95  0.0   0.2+
070915 G96  0.1+  0.4-    070915 J95  0.4-  0.4+    070917 673  0.2-  0.1+
070915 G96  0.5+  0.4-    070915 J95  0.5+  0.2+    070917 673  0.0   0.1-
070915 G96  0.5-  0.3+    070916 J95  0.1-  0.2-    070917 673  0.8-  0.6-
070915 G96  0.7-  0.0     070916 J95  0.1-  0.2+    070917 673  0.2-  1.0+
070915 G96  0.3-  0.0     070917 J95  0.2-  0.2+

Ephemeris:
2007 RN133               a,e,i = 2.24, 0.66, 19                  q = 0.7522
Date    TT    R. A. (2000) Decl.     Delta      r     Elong.  Phase     V
2007 09 17    23 14.93   +12 23.0    0.0455   1.049   164.1    15.2    19.3
2007 09 18    22 56.19   +23 39.4    0.0388   1.039   152.1    26.9    19.3
2007 09 19    22 25.28   +38 21.8    0.0344   1.030   136.0    42.7    19.5
2007 09 20    21 28.21   +54 30.1    0.0333   1.020   117.2    61.1    19.9
2007 09 21    19 36.86   +66 38.2    0.0358   1.011    99.3    78.7    20.6
2007 09 22    17 02.46   +69 28.6    0.0413   1.001    84.9    92.7    21.5
2007 09 23    15 16.70   +65 50.7    0.0487   0.992    74.4   102.8    22.3
2007 09 24    14 22.69   +61 08.3    0.0573   0.982    67.0   110.0    23.0
2007 09 25    13 53.11   +57 02.6    0.0666   0.973    61.5   115.0    23.6
2007 09 26    13 34.97   +53 43.5    0.0764   0.964    57.5   118.6    24.2
2007 09 27    13 22.84   +51 03.0    0.0865   0.955    54.5   121.3    24.6

Timothy B. Spahr             (C) Copyright 2007 MPC           M.P.E.C. 2007-S08

Read MPEC 2007-S07 Read MPEC 2007-S09


Our Web policy. Index to the CBAT/MPC/ICQ pages.


Valid HTML 4.01!